Simultaneous Nadir Overpasses (SNOs) Predictions

Prediction of SNOs near US between AQUA and NPP Satellite Orbit:

Table of predicted SNOs near US for the next 10.0 days since TLE Epoch: 7/9/2022
Index Date (AQUA) Time (AQUA) AQUA Lat,Lon Date (NPP) Time (NPP) NPP Lat,Lon Distance(km) Time Diff (sec)
1 07/14/2022 06:54:23 28.87, -74.24 07/14/2022 06:48:30 29.21, -75.89 164.33 353
2 07/14/2022 08:30:42 38.06, -96.40 07/14/2022 08:27:22 38.42, -98.54 191.58 200
3 07/14/2022 10:07:02 47.14,-118.03 07/14/2022 10:06:14 47.57,-120.60 199.69 48
4 07/16/2022 21:03:54 49.97,-121.05 07/16/2022 20:55:44 49.62,-122.95 141.37 490
